Location: Milton
(43.5183°N, 79.8775°W)
Time: 12:54:24
(UTC+00:00)

ESTCUBE 1 - Visible Passes

Search period start: 02 April 2023 00:00
Search period end: 12 April 2023 00:00
Orbit: 642 x 655 km, 97.9° (Epoch: 02 April)

Date Brightness Start Highest point End Pass type
(mag) Time Alt. Az. Time Alt. Az. Time Alt. Az.
02 Apr ? 01:45:43 11° NE 01:45:43 11° NE 01:46:26 10° NE visible
02 Apr ? 03:23:29 23° NNW 03:23:29 23° NNW 03:25:11 10° NNW visible
03 Apr ? 02:11:56 18° NE 02:11:56 18° NE 02:13:43 10° NNE visible
03 Apr ? 03:49:41 18° NW 03:49:41 18° NW 03:51:02 10° NNW visible
04 Apr ? 02:38:09 24° NNE 02:38:09 24° NNE 02:40:17 10° N visible
04 Apr ? 04:15:53 13° NW 04:15:53 13° NW 04:16:31 10° NW visible
05 Apr ? 03:04:21 28° N 03:04:21 28° N 03:06:33 10° N visible
06 Apr ? 01:52:47 14° NE 01:52:47 14° NE 01:54:19 10° NNE visible
06 Apr ? 03:30:33 26° NNW 03:30:33 26° NNW 03:32:32 10° NNW visible
07 Apr ? 02:18:59 21° NE 02:18:59 21° NE 02:21:16 10° NNE visible
07 Apr ? 03:56:44 19° NW 03:56:44 19° NW 03:58:16 10° NNW visible
08 Apr ? 02:45:10 29° NNE 02:45:10 29° NNE 02:47:43 10° N visible
08 Apr ? 04:22:54 13° NW 04:22:54 13° NW 04:23:34 10° NW visible
09 Apr ? 03:11:20 33° N 03:11:20 33° N 03:13:52 10° N visible
10 Apr ? 01:59:46 16° NE 01:59:46 16° NE 02:01:57 10° NNE visible
10 Apr ? 03:37:31 28° NW 03:37:31 28° NW 03:39:47 10° NNW visible
11 Apr ? 02:25:56 25° NE 02:25:56 25° NE 02:28:41 10° N visible
11 Apr ? 04:03:41 19° NW 04:03:41 19° NW 04:05:22 10° NW visible
